�������l�o���
Date,Time,MP-1(��Sv/h),MP-2(��Sv/h),MP-3(��Sv/h),MP-4(��Sv/h),MP-5(��Sv/h),MP-6(��Sv/h),MP-7(��Sv/h),MP-8(��Sv/h),����,����(m/s),���J
2017/01/20,00:00,1.076,1.817,1.183,2.055,1.429,0.562,1.030,0.955,���k��,8.3,��
2017/01/20,00:10,1.076,1.818,1.184,2.059,1.428,0.561,1.032,0.956,��,8.6,��
2017/01/20,00:20,1.075,1.820,1.182,2.059,1.428,0.560,1.030,0.955,��,8.6,��
2017/01/20,00:30,1.076,1.818,1.182,2.057,1.430,0.561,1.029,0.954,��,6.6,��
2017/01/20,00:40,1.075,1.822,1.183,2.058,1.430,0.561,1.031,0.956,��,4.6,��
2017/01/20,00:50,1.076,1.820,1.182,2.058,1.428,0.561,1.031,0.956,��,5.8,��
2017/01/20,01:00,1.076,1.820,1.182,2.057,1.429,0.561,1.029,0.955,���k��,5.4,��
2017/01/20,01:10,1.075,1.818,1.182,2.059,1.429,0.562,1.030,0.955,��,5.4,��
2017/01/20,01:20,1.076,1.819,1.181,2.059,1.431,0.563,1.028,0.956,���k��,6.5,��
2017/01/20,01:30,1.076,1.816,1.183,2.057,1.428,0.561,1.029,0.955,���k��,6.5,��
2017/01/20,01:40,1.076,1.817,1.180,2.061,1.428,0.561,1.029,0.955,��,5.4,��
2017/01/20,01:50,1.076,1.820,1.180,2.057,1.426,0.561,1.028,0.955,���k��,6.0,��
2017/01/20,02:00,1.077,1.821,1.182,2.055,1.427,0.562,1.029,0.954,���k��,5.7,��
2017/01/20,02:10,1.076,1.819,1.181,2.058,1.426,0.561,1.029,0.955,���k��,4.9,��
2017/01/20,02:20,1.076,1.819,1.181,2.056,1.426,0.560,1.029,0.954,���k��,4.0,��
2017/01/20,02:30,1.075,1.815,1.183,2.056,1.429,0.561,1.030,0.955,���k��,4.4,��
2017/01/20,02:40,1.076,1.817,1.181,2.057,1.426,0.562,1.028,0.955,���k��,4.6,��
2017/01/20,02:50,1.077,1.819,1.182,2.059,1.426,0.561,1.029,0.955,���k��,4.2,��
2017/01/20,03:00,1.076,1.818,1.182,2.057,1.428,0.561,1.028,0.956,���k��,4.2,��
2017/01/20,03:10,1.075,1.818,1.182,2.059,1.426,0.561,1.030,0.954,���k��,5.6,��
2017/01/20,03:20,1.076,1.819,1.181,2.057,1.428,0.561,1.027,0.954,��,5.2,��
2017/01/20,03:30,1.074,1.819,1.180,2.058,1.427,0.562,1.029,0.953,��,5.3,��
2017/01/20,03:40,1.076,1.818,1.181,2.059,1.425,0.561,1.029,0.956,��,4.9,��
2017/01/20,03:50,1.076,1.814,1.182,2.056,1.424,0.562,1.029,0.954,��,3.6,��
2017/01/20,04:00,1.075,1.818,1.180,2.058,1.428,0.560,1.028,0.956,��,4.5,��
2017/01/20,04:10,1.076,1.818,1.181,2.058,1.426,0.561,1.029,0.955,��,4.4,��
2017/01/20,04:20,1.072,1.815,1.181,2.056,1.426,0.560,1.029,0.955,��,4.6,��
2017/01/20,04:30,1.074,1.816,1.180,2.057,1.427,0.559,1.029,0.954,��,4.9,��
2017/01/20,04:40,1.071,1.818,1.181,2.056,1.428,0.560,1.028,0.954,��,3.8,��
2017/01/20,04:50,1.074,1.816,1.181,2.056,1.428,0.561,1.028,0.956,��,3.5,��
2017/01/20,05:00,1.073,1.816,1.179,2.056,1.426,0.560,1.028,0.954,���k��,3.7,��
2017/01/20,05:10,1.071,1.816,1.180,2.058,1.423,0.559,1.028,0.954,�k��,3.3,��
2017/01/20,05:20,1.074,1.818,1.177,2.056,1.427,0.561,1.030,0.954,�k��,3.9,��
2017/01/20,05:30,1.073,1.817,1.181,2.057,1.427,0.560,1.029,0.956,�k��,6.1,��
2017/01/20,05:40,1.072,1.821,1.179,2.054,1.428,0.560,1.028,0.955,�k�k��,6.1,��
2017/01/20,05:50,1.072,1.818,1.181,2.060,1.428,0.560,1.028,0.954,�k�k��,6.2,��
2017/01/20,06:00,1.074,1.818,1.179,2.057,1.425,0.558,1.029,0.953,�k�k��,4.8,��
2017/01/20,06:10,1.075,1.816,1.179,2.057,1.425,0.561,1.028,0.954,�k�k��,4.4,��
2017/01/20,06:20,1.073,1.820,1.182,2.058,1.431,0.561,1.027,0.954,�k�k��,4.3,��
2017/01/20,06:30,1.075,1.816,1.180,2.058,1.425,0.561,1.030,0.955,�k�k��,3.8,��
2017/01/20,06:40,1.076,1.821,1.180,2.058,1.427,0.561,1.028,0.955,�k�k��,4.1,��
2017/01/20,06:50,1.073,1.816,1.180,2.058,1.427,0.560,1.029,0.954,�k�k��,4.3,��
2017/01/20,07:00,1.074,1.819,1.180,2.057,1.427,0.559,1.030,0.954,�k�k��,4.0,��
2017/01/20,07:10,1.075,1.815,1.180,2.059,1.429,0.561,1.029,0.956,�k��,4.2,��
2017/01/20,07:20,1.074,1.817,1.180,2.060,1.427,0.559,1.027,0.954,�k�k��,4.3,��
2017/01/20,07:30,1.076,1.815,1.181,2.058,1.426,0.560,1.031,0.956,�k�k��,4.5,��
2017/01/20,07:40,1.074,1.820,1.183,2.058,1.426,0.562,1.029,0.955,�k�k��,4.6,��
2017/01/20,07:50,1.073,1.818,1.182,2.059,1.427,0.561,1.030,0.955,�k�k��,5.4,��
2017/01/20,08:00,1.074,1.820,1.183,2.059,1.425,0.561,1.030,0.956,�k�k��,4.9,��
2017/01/20,08:10,1.075,1.817,1.182,2.064,1.429,0.562,1.029,0.953,�k�k��,5.4,��
2017/01/20,08:20,1.076,1.818,1.183,2.060,1.425,0.561,1.030,0.956,�k��,5.4,��
2017/01/20,08:30,1.076,1.819,1.183,2.059,1.427,0.560,1.030,0.955,�k��,5.3,��
2017/01/20,08:40,1.077,1.820,1.174,2.059,1.427,0.562,1.030,0.955,�k��,5.4,��
2017/01/20,08:50,1.079,1.820,1.178,2.059,1.427,0.562,1.031,0.956,�k��,5.5,��
2017/01/20,09:00,1.075,1.820,1.181,2.061,1.428,0.561,1.032,0.956,�k��,5.4,��
2017/01/20,09:10,1.078,1.820,1.183,2.061,1.425,0.562,1.031,0.955,�k��,5.8,��
2017/01/20,09:20,1.077,1.820,1.185,2.061,1.429,0.563,1.031,0.958,�k��,5.7,��
2017/01/20,09:30,1.080,1.819,1.184,2.062,1.426,0.562,1.033,0.958,�k��,5.3,��
2017/01/20,09:40,1.079,1.819,1.182,2.061,1.412,0.561,1.033,0.955,�k��,5.0,��
2017/01/20,09:50,1.078,1.822,1.183,2.061,1.400,0.563,1.031,0.956,�k��,4.5,��
2017/01/20,10:00,1.076,1.822,1.183,2.060,1.389,0.562,1.031,0.956,�k��,3.4,��
2017/01/20,10:10,1.078,1.826,1.187,2.064,1.423,0.562,1.030,0.957,�k��,2.9,��
2017/01/20,10:20,1.081,1.821,1.186,2.064,1.431,0.563,1.033,0.957,�k��,3.2,��
2017/01/20,10:30,1.082,1.823,1.185,2.059,1.431,0.562,1.032,0.957,�k��,2.6,��
2017/01/20,10:40,1.080,1.824,1.186,2.063,1.430,0.562,1.034,0.957,�k��,2.3,��
2017/01/20,10:50,1.080,1.820,1.186,2.063,1.429,0.562,1.033,0.956,�k�k��,2.8,��
2017/01/20,11:00,1.081,1.825,1.187,2.066,1.431,0.563,1.033,0.958,�k��,2.6,��
2017/01/20,11:10,1.081,1.824,1.187,2.064,1.432,0.563,1.032,0.957,�k�k��,2.6,��
2017/01/20,11:20,1.081,1.825,1.189,2.065,1.430,0.564,1.034,0.955,�k�k��,3.1,��
2017/01/20,11:30,1.081,1.824,1.188,2.062,1.431,0.563,1.035,0.959,�k�k��,2.9,��
2017/01/20,11:40,1.082,1.821,1.187,2.063,1.429,0.563,1.034,0.957,�k�k��,2.3,��
2017/01/20,11:50,1.082,1.825,1.187,2.065,1.425,0.563,1.035,0.957,�k�k��,2.3,��
2017/01/20,12:00,1.082,1.822,1.187,2.064,1.408,0.565,1.033,0.957,�k��,2.3,��
2017/01/20,12:10,1.080,1.820,1.187,2.063,1.405,0.563,1.034,0.957,�k�k��,1.1,��
2017/01/20,12:20,1.082,1.822,1.188,2.064,1.416,0.564,1.034,0.959,�k�k��,1.5,�L
2017/01/20,12:30,1.080,1.824,1.188,2.063,1.430,0.564,1.032,0.957,�k�k��,1.5,�L
2017/01/20,12:40,1.079,1.821,1.184,2.061,1.428,0.563,1.033,0.957,�k,2.0,�L
2017/01/20,12:50,1.078,1.818,1.187,2.060,1.430,0.565,1.031,0.955,�k,1.5,�L
2017/01/20,13:00,1.076,1.818,1.179,2.057,1.426,0.564,1.028,0.955,�k,2.0,�L
2017/01/20,13:10,1.075,1.808,1.171,2.058,1.425,0.565,1.028,0.953,���k��,1.5,�L
2017/01/20,13:20,1.074,1.807,1.179,2.055,1.422,0.564,1.030,0.956,�k��,1.7,�L
2017/01/20,13:30,1.076,1.809,1.177,2.052,1.424,0.563,1.029,0.954,�k��,2.6,�L
2017/01/20,13:40,1.073,1.809,1.176,2.053,1.423,0.564,1.027,0.956,�k��,2.2,�L
2017/01/20,13:50,1.073,1.804,1.178,2.052,1.423,0.562,1.029,0.952,�k��,1.5,��
2017/01/20,14:00,1.073,1.808,1.177,2.053,1.421,0.564,1.029,0.951,�k��,2.3,��
2017/01/20,14:10,1.073,1.810,1.176,2.054,1.423,0.563,1.030,0.954,�k��,2.8,��
2017/01/20,14:20,1.071,1.810,1.176,2.053,1.422,0.564,1.029,0.952,�k��,3.4,��
2017/01/20,14:30,1.071,1.806,1.178,2.055,1.421,0.562,1.029,0.953,�k��,3.5,��
2017/01/20,14:40,1.071,1.807,1.177,2.053,1.422,0.563,1.029,0.952,�k��,3.5,��
2017/01/20,14:50,1.072,1.808,1.178,2.053,1.422,0.564,1.030,0.955,�k��,4.1,��
2017/01/20,15:00,1.072,1.807,1.178,2.052,1.421,0.562,1.029,0.953,�k��,3.1,��
2017/01/20,15:10,1.072,1.809,1.178,2.052,1.423,0.562,1.031,0.952,�k��,3.9,�L
2017/01/20,15:20,1.069,1.807,1.176,2.052,1.423,0.562,1.029,0.954,�k�k��,4.9,�L
2017/01/20,15:30,1.071,1.807,1.176,2.050,1.421,0.562,1.029,0.954,�k��,6.2,�L
2017/01/20,15:40,1.069,1.802,1.175,2.051,1.420,0.564,1.030,0.953,�k��,6.2,�L
2017/01/20,15:50,1.068,1.802,1.176,2.051,1.419,0.563,1.029,0.952,�k��,6.5,��
2017/01/20,16:00,1.069,1.802,1.177,2.051,1.420,0.563,1.028,0.954,�k��,6.1,��
2017/01/20,16:10,1.069,1.804,1.175,2.049,1.421,0.562,1.027,0.952,�k��,6.4,�L
2017/01/20,16:20,1.069,1.805,1.175,2.049,1.418,0.563,1.029,0.952,�k��,6.0,�L
2017/01/20,16:30,1.069,1.800,1.175,2.049,1.419,0.562,1.029,0.952,�k��,5.9,�L
2017/01/20,16:40,1.068,1.799,1.176,2.049,1.418,0.561,1.029,0.951,�k��,4.7,�L
2017/01/20,16:50,1.068,1.798,1.173,2.045,1.416,0.563,1.029,0.952,�k��,4.6,�L
2017/01/20,17:00,1.066,1.801,1.174,2.047,1.416,0.563,1.028,0.953,�k��,5.5,�L
2017/01/20,17:10,1.065,1.796,1.170,2.042,1.411,0.562,1.026,0.951,�k��,5.4,�L
2017/01/20,17:20,1.062,1.786,1.164,2.040,1.407,0.560,1.024,0.951,�k�k��,6.3,�L
2017/01/20,17:30,1.060,1.784,1.165,2.033,1.404,0.562,1.023,0.949,�k��,6.9,�L
2017/01/20,17:40,1.057,1.777,1.163,2.033,1.401,0.560,1.024,0.949,�k��,5.8,�L
2017/01/20,17:50,1.056,1.772,1.160,2.026,1.395,0.560,1.024,0.948,�k��,6.2,�L
2017/01/20,18:00,1.056,1.770,1.157,2.025,1.394,0.559,1.024,0.949,�k��,6.8,�L
2017/01/20,18:10,1.056,1.772,1.158,2.026,1.396,0.559,1.020,0.947,�k��,5.9,�L
2017/01/20,18:20,1.055,1.770,1.155,2.024,1.394,0.560,1.021,0.948,�k��,6.8,�L
2017/01/20,18:30,1.054,1.769,1.158,2.020,1.393,0.558,1.020,0.946,�k�k��,7.7,�L
2017/01/20,18:40,1.052,1.765,1.156,2.016,1.390,0.559,1.019,0.945,�k��,7.5,�L
2017/01/20,18:50,1.048,1.761,1.153,2.010,1.386,0.555,1.018,0.945,�k��,7.4,�L
2017/01/20,19:00,1.045,1.753,1.150,2.001,1.382,0.557,1.018,0.943,�k��,7.7,�L
2017/01/20,19:10,1.040,1.740,1.145,1.995,1.375,0.555,1.016,0.943,�k��,6.2,�L
2017/01/20,19:20,1.037,1.737,1.140,1.984,1.369,0.555,1.016,0.942,�k��,6.4,�L
2017/01/20,19:30,1.033,1.731,1.139,1.975,1.362,0.555,1.012,0.939,�k��,7.8,�L
2017/01/20,19:40,1.035,1.728,1.137,1.973,1.363,0.554,1.009,0.940,�k��,6.5,�L
2017/01/20,19:50,1.035,1.730,1.136,1.968,1.361,0.553,1.010,0.939,�k��,6.9,�L
2017/01/20,20:00,1.029,1.725,1.133,1.964,1.355,0.554,1.008,0.939,�k��,7.4,�L
2017/01/20,20:10,1.024,1.714,1.132,1.960,1.355,0.554,1.004,0.936,�k��,7.8,�L
2017/01/20,20:20,1.018,1.698,1.124,1.938,1.338,0.550,0.999,0.933,�k��,6.5,�L
2017/01/20,20:30,1.018,1.685,1.111,1.923,1.322,0.546,0.992,0.929,�k�k��,8.0,�L
2017/01/20,20:40,1.021,1.694,1.116,1.930,1.314,0.549,0.996,0.930,�k�k��,5.5,�L
2017/01/20,20:50,1.025,1.703,1.121,1.938,1.319,0.548,0.995,0.933,�k�k��,8.6,�L
2017/01/20,21:00,1.022,1.676,1.111,1.926,1.306,0.549,0.996,0.935,�k��,9.3,�L
2017/01/20,21:10,1.018,1.664,1.104,1.911,1.287,0.547,0.994,0.934,�k�k��,9.5,�L
2017/01/20,21:20,1.018,1.663,1.099,1.906,1.269,0.545,0.991,0.931,�k��,10.9,�L
2017/01/20,21:30,1.015,1.655,1.096,1.899,1.260,0.545,0.988,0.932,�k�k��,8.9,�L
2017/01/20,21:40,1.015,1.651,1.093,1.900,1.250,0.541,0.987,0.932,�k�k��,10.0,�L
2017/01/20,21:50,1.014,1.653,1.091,1.898,1.240,0.542,0.986,0.930,�k�k��,10.0,�L
2017/01/20,22:00,1.014,1.646,1.090,1.886,1.226,0.538,0.981,0.929,�k��,8.4,�L
2017/01/20,22:10,1.012,1.642,1.083,1.880,1.211,0.536,0.973,0.925,�k�k��,10.5,�L
2017/01/20,22:20,1.013,1.632,1.077,1.875,1.203,0.535,0.968,0.924,�k�k��,10.3,�L
2017/01/20,22:30,1.012,1.627,1.071,1.862,1.191,0.531,0.963,0.924,�k�k��,12.5,�L
2017/01/20,22:40,1.012,1.621,1.066,1.854,1.184,0.529,0.961,0.923,�k�k��,11.3,�L
2017/01/20,22:50,1.012,1.616,1.064,1.855,1.180,0.525,0.961,0.923,�k�k��,12.2,�L
2017/01/20,23:00,1.007,1.609,1.060,1.852,1.172,0.525,0.957,0.921,�k�k��,10.3,�L
2017/01/20,23:10,0.999,1.599,1.055,1.842,1.162,0.522,0.953,0.917,�k�k��,10.7,�L
2017/01/20,23:20,0.996,1.596,1.050,1.838,1.162,0.521,0.949,0.917,�k�k��,13.0,�L
2017/01/20,23:30,0.992,1.591,1.050,1.834,1.158,0.519,0.950,0.915,�k�k��,10.2,�L
2017/01/20,23:40,0.990,1.587,1.045,1.830,1.155,0.518,0.947,0.914,�k�k��,13.1,�L
2017/01/20,23:50,0.983,1.583,1.043,1.828,1.150,0.516,0.949,0.913,�k�k��,12.1,�L
